Location: Branche des Alpilles
(43.6087°N, 4.6976°E)
Time: 08:13:39
(UTC+00:00)

FENGYUN 1C DEB - Pass Details

Date: 22 June 2021
Orbit: 782 x 878 km, 99.7° (Epoch: 28 July)

Event Time Altitude Azimuth Distance (km) Brightness Sun altitude
Exits shadow 01:29:41 28° 172° (S) 1,493 ? -18.6°
Maximum altitude 01:32:35 78° 254° (WSW) 825 ? -18.4°
Drops below altitude 10° 01:37:49 10° 342° (NNW) 2,368 ? -18.0°
Sets 01:40:08 0° 344° (NNW) 3,293 ? -17.8°
